Kingston, Jamaica

4:48 AM EST on March 30, 2017 (GMT -0500)
Norman Manley International

Weather History for MKJP - March, 2013

Change the Weather History Date:

Friday, March 29, 2013

  Actual Average Record
Temperature  
Mean Temperature 80 °F -  
Max Temperature 85 °F 85 °F 89 °F (2006)
Min Temperature 75 °F 76 °F 73 °F (2002)
Cooling Degree Days 15    
Growing Degree Days 30 (Base 50)    
Moisture  
Dew Point 69 °F    
Average Humidity 66    
Maximum Humidity 78    
Minimum Humidity 51    
Precipitation  
Precipitation 0.01 in - - ()
Sea Level Pressure  
Sea Level Pressure 30.00 in    
Wind  
Wind Speed 9 mph ()    
Max Wind Speed 78 mph    
Max Gust Speed -    
Visibility 7.9 miles    
Events      
Averages and records for this station are not official NWS values.
T = Trace of Precipitation, MM = Missing Value Source: Averaged Metar Reports

Daily Weather History Graph

Daily Weather History Graph

Search for Another Location

Airport or City:

Trip Planner

Search our weather history database for the weather conditions in past years. The results will help you decide how hot, cold, wet, or windy it might be!

Date:

Astronomy

Mar. 29, 2013 Rise Set
Actual Time 6:03 AM EST 6:20 PM EST
Civil Twilight 5:41 AM EST 6:41 PM EST
Nautical Twilight 5:16 AM EST 7:07 PM EST
Astronomical Twilight 4:51 AM EST 7:32 PM EST
Moon 8:48 PM EST (3/29) 7:35 AM EST (3/29)
Length of Visible Light 12h 59m
Length of Day
12h 16m
Waning Gibbous, 93% of the Moon is Illuminated
Mar 29
Waning Gibbous
Apr 2
Last Quarter
Apr 10
New
Apr 18
First Quarter
Apr 25
Full

Hourly Weather History & Observations

Time (EST) Temp. Heat Index Dew Point Humidity Pressure Visibility Wind Dir Wind Speed Gust Speed Precip Events Conditions
12:00 AM 80.6 °F 83.9 °F 69.8 °F 70% 30.01 in 6.2 mi SW 6.9 mph - N/A   Partly Cloudy
1:00 AM 80 °F - 72 °F 70% 29.99 in 11 mi WSW 8.1 mph - -   Haze
1:00 AM 80.6 °F 84.6 °F 71.6 °F 74% 29.98 in 6.2 mi WSW 8.1 mph - N/A   Partly Cloudy
2:00 AM 78.8 °F - 68.0 °F 69% 29.95 in 6.2 mi WNW 6.9 mph - N/A   Partly Cloudy
3:00 AM 78.8 °F - 68.0 °F 69% 29.95 in 6.2 mi NW 6.9 mph - N/A   Partly Cloudy
4:00 AM - - - %  in 6 mi SSE 78.3 mph - -  
4:00 AM 77.0 °F - 68.0 °F 74% 29.95 in 6.2 mi West 4.6 mph - N/A   Partly Cloudy
5:00 AM 77.0 °F - 69.8 °F 78% 29.98 in 6.2 mi West 2.3 mph - N/A   Partly Cloudy
6:00 AM 77.0 °F - 69.8 °F 78% 29.98 in 6.2 mi WNW 4.6 mph - N/A   Partly Cloudy
7:00 AM 78 °F - 72 °F 75% 30.01 in 12 mi West 3.5 mph - -   Haze
7:00 AM 78.8 °F - 71.6 °F 78% 30.01 in 6.2 mi West 3.5 mph - N/A   Partly Cloudy
8:00 AM 80.6 °F 83.9 °F 69.8 °F 70% 30.04 in 6.2 mi WSW 4.6 mph - N/A   Partly Cloudy
9:00 AM 80.6 °F 83.9 °F 69.8 °F 70% 30.04 in 6.2 mi WSW 5.8 mph - N/A   Partly Cloudy
10:00 AM 82 °F - 70 °F 58% 30.06 in 17 mi SSW 8.1 mph - -   Haze
10:00 AM 82.4 °F 86.3 °F 69.8 °F 66% 30.04 in 6.2 mi SSW 8.1 mph - N/A   Partly Cloudy
11:00 AM 82.4 °F 86.3 °F 69.8 °F 66% 30.04 in 6.2 mi SSW 9.2 mph - N/A   Mostly Cloudy
12:00 PM 84.2 °F 88.4 °F 69.8 °F 62% 30.01 in 6.2 mi SSW 9.2 mph - N/A   Mostly Cloudy
1:00 PM 87 °F - 71 °F 51% 30.01 in 19 mi SW 8.1 mph - -  
1:00 PM 86.0 °F 91.8 °F 71.6 °F 62% 30.01 in 6.2 mi SW 8.1 mph - N/A   Scattered Clouds
2:00 PM 84.2 °F 88.4 °F 69.8 °F 62% 29.98 in 6.2 mi South 6.9 mph - N/A   Mostly Cloudy
3:00 PM 86.0 °F 90.4 °F 69.8 °F 58% 29.98 in 6.2 mi NW 8.1 mph - N/A   Partly Cloudy
4:00 PM 85 °F - 70 °F 51% 29.96 in 16 mi West 10.4 mph - -   Mostly Cloudy
4:00 PM 84.2 °F 88.4 °F 69.8 °F 62% 29.95 in 6.2 mi West 10.4 mph - N/A   Mostly Cloudy
5:00 PM 82.4 °F 85.4 °F 68.0 °F 62% 29.95 in 6.2 mi NNW 15.0 mph - N/A   Scattered Clouds
6:00 PM 80.6 °F 82.7 °F 66.2 °F 61% 29.98 in 6.2 mi NNW 15.0 mph - N/A   Scattered Clouds
7:00 PM 77 °F - 70 °F 73% 30.01 in 12 mi North 12.7 mph - -   Haze
7:00 PM 82.4 °F 86.3 °F 69.8 °F 66% 29.98 in 6.2 mi North 8.1 mph - N/A   Partly Cloudy
8:00 PM 80.6 °F 82.7 °F 66.2 °F 61% 30.01 in 6.2 mi North 13.8 mph - N/A   Partly Cloudy
9:00 PM 80.6 °F 82.3 °F 64.4 °F 58% 30.01 in 6.2 mi NNE 8.1 mph - N/A   Scattered Clouds
10:00 PM 80 °F - 67 °F 57% 30.03 in 12 mi ESE 4.6 mph - -   Scattered Clouds
10:00 PM 80.6 °F 83.2 °F 68.0 °F 65% 30.01 in 6.2 mi ESE 4.6 mph - N/A   Mostly Cloudy
11:00 PM 80.6 °F 83.2 °F 68.0 °F 65% 30.01 in 6.2 mi NNE 5.8 mph - N/A   Mostly Cloudy